Portada
METAR-TAF:

METAR-TAF

Aeroports :

Lifuka, Tonga

latitud: 19-46-36S, longitud: 174-20-28W, altitud: 9 m

Observació

L'informe es va fer fa 5 hores i 5 minuts, a les 06:00 UTC
Vent 8 kt del Sud-Est
Temperatura 25°C
Humitat 83%
Pressió 1014 hPa
Visibilitat 10 km o més
Escasses núvols a una alçada de 900 ft
Núvols disperses a una alçada de 1600 ft
Cel ennuvolat a una alçada de 12000 ft

METAR: NFTL 290600Z 13008KT 9999 FEW009 SCT016 BKN120 25/22 Q1014

Hora: 00:05 (11:05 UTC)


TAF: manca

Observacions i pronòstics meteorològics de més de 4000 aeroports (METAR i TAF).

Les estacions disponibles són els punts grocs i vermells al mapa.

Posi el ratolí al punt desitjat per veure el nom de l'estació.

Feu clic per veure les observacions i els pronòstics meteorològics.

Per canviar el mapa: feu clic els botons verds amb una creu de color negre per apropar; al botó verd amb un guió per allunyar la imatge; o en les fletxes verdes per a mapes adjacents.


METAR-TAF: